WX4F Weather Reports


Display with metric or nautical units.
time (UTC)temp
F
wind
direction
speed
MPH
gust
MPH
rain 1hr
in
rain 24hr
in
rain mn
in
humidity
%
barometer
mb
20260504140504 62 236 0.0 0.0 0.00 0.00 0.00 51 1019.0
20260504130504 52 257 0.0 0.0 0.00 0.00 0.00 76 1019.0
20260504100504 37 257 0.0 0.0 0.00 0.00 0.00 93 1018.6
20260504081003 38 257 0.0 0.0 0.00 0.00 0.00 92 1018.7
20260504080504 39 257 0.0 0.0 0.00 0.00 0.00 92 1018.7
20260504050004 43 257 0.0 2.0 0.00 0.00 0.00 86 1018.8
20260504045504 43 257 1.0 2.0 0.00 0.00 0.00 85 1018.9
20260504045003 43 257 0.0 0.0 0.00 0.00 0.00 85 1018.8
20260504044003 43 257 0.0 0.0 0.00 0.00 0.00 85 1018.8
20260504043503 43 257 0.0 0.0 0.00 0.00 0.00 85 1018.8
20260504043004 44 257 0.0 1.0 0.00 0.00 0.00 85 1018.8
20260504042504 44 257 0.0 1.0 0.00 0.00 0.00 85 1018.9
20260504042004 44 257 0.0 0.0 0.00 0.00 0.00 84 1019.0
20260504041504 44 257 0.0 0.0 0.00 0.00 0.00 84 1018.9
20260504041004 44 257 0.0 0.0 0.00 0.00 0.00 83 1018.8
20260504040503 44 257 0.0 0.0 0.00 0.00 0.00 83 1018.8
20260504040004 44 257 0.0 0.0 0.00 0.00 0.00 82 1018.7
20260504035503 44 257 0.0 0.0 0.00 0.00 0.00 81 1018.7
20260504035004 44 257 0.0 0.0 0.00 0.00 0.00 82 1018.6
20260504034504 44 257 0.0 0.0 0.00 0.00 0.00 81 1018.5
20260504034004 45 257 0.0 0.0 0.00 0.00 0.00 81 1018.5
20260504033505 45 257 0.0 0.0 0.00 0.00 0.00 81 1018.5
20260504033004 45 257 0.0 0.0 0.00 0.00 0.00 80 1018.6
20260504032504 45 257 0.0 0.0 0.00 0.00 0.00 80 1018.6
20260504032004 45 257 0.0 0.0 0.00 0.00 0.00 80 1018.6
20260504031503 45 257 0.0 0.0 0.00 0.00 0.00 80 1018.8
20260504030503 46 257 0.0 0.0 0.00 0.00 0.00 79 1018.7
20260504030004 46 257 0.0 0.0 0.00 0.00 0.00 78 1018.8
20260504025504 46 257 0.0 0.0 0.00 0.00 0.00 78 1018.8
20260504025004 46 257 0.0 0.0 0.00 0.00 0.00 78 1018.7
20260504024504 46 257 0.0 0.0 0.00 0.00 0.00 77 1018.7
20260504024003 47 257 0.0 0.0 0.00 0.00 0.00 77 1018.8
20260504023505 47 257 0.0 0.0 0.00 0.00 0.00 76 1018.9
20260504023003 47 257 0.0 0.0 0.00 0.00 0.00 76 1018.8
20260504022504 48 257 0.0 0.0 0.00 0.00 0.00 75 1018.9
20260504022004 49 257 0.0 0.0 0.00 0.00 0.00 73 1018.7
20260504021504 49 257 0.0 0.0 0.00 0.00 0.00 71 1018.7
20260504020504 50 257 0.0 0.0 0.00 0.00 0.00 72 1018.5
20260504015503 50 257 0.0 1.0 0.00 0.00 0.00 71 1018.3
20260504015004 50 257 0.0 1.0 0.00 0.00 0.00 70 1018.1
20260504014004 50 257 0.0 0.0 0.00 0.00 0.00 70 1018.0
20260504013504 50 257 0.0 0.0 0.00 0.00 0.00 70 1017.8
20260504013003 50 257 0.0 0.0 0.00 0.00 0.00 69 1017.8
20260504012503 50 257 0.0 0.0 0.00 0.00 0.00 69 1017.7
20260504012004 50 257 0.0 0.0 0.00 0.00 0.00 68 1017.8
20260504011003 51 257 0.0 0.0 0.00 0.00 0.00 66 1017.7
20260504010503 51 257 0.0 0.0 0.00 0.00 0.00 67 1017.6
20260504010005 51 257 0.0 0.0 0.00 0.00 0.00 66 1017.5
20260504005504 51 257 0.0 0.0 0.00 0.00 0.00 65 1017.5
20260504005004 52 257 0.0 0.0 0.00 0.00 0.00 65 1017.5
20260504004503 52 257 0.0 0.0 0.00 0.00 0.00 66 1017.5
20260504004003 52 257 0.0 0.0 0.00 0.00 0.00 63 1017.4
20260504003504 53 257 0.0 0.0 0.00 0.00 0.00 63 1017.5
20260504002503 54 257 0.0 0.0 0.00 0.00 0.00 60 1017.4
20260504001504 55 257 0.0 0.0 0.00 0.00 0.00 57 1017.3
20260504001004 56 257 0.0 0.0 0.00 0.00 0.00 56 1017.2
20260504000503 56 257 0.0 0.0 0.00 0.00 0.00 56 1017.2
20260504000004 57 257 0.0 0.0 0.00 0.00 0.00 56 1017.1
20260503235503 58 257 0.0 0.0 0.00 0.00 0.00 52 1017.1
20260503235003 59 257 0.0 0.0 0.00 0.00 0.00 52 1017.2
20260503234503 60 257 0.0 2.0 0.00 0.00 0.00 45 1017.2
20260503234004 61 254 0.0 1.0 0.00 0.00 0.00 42 1017.2
20260503233504 61 254 0.0 2.0 0.00 0.00 0.00 43 1017.2
20260503233004 62 249 0.0 2.0 0.00 0.00 0.00 39 1017.2
20260503232503 62 241 0.0 3.0 0.00 0.00 0.00 40 1017.1
20260503231504 63 226 1.0 3.0 0.00 0.00 0.00 37 1017.1
20260503231003 63 142 2.0 5.0 0.00 0.00 0.00 37 1017.1
20260503230503 63 238 1.0 3.0 0.00 0.00 0.00 37 1017.2
20260503230004 63 229 2.0 5.0 0.00 0.00 0.00 37 1017.2
20260503225504 63 227 0.0 3.0 0.00 0.00 0.00 36 1017.1
20260503225004 63 235 0.0 2.0 0.00 0.00 0.00 35 1017.1
20260503224504 63 199 1.0 3.0 0.00 0.00 0.00 36 1017.2
20260503223003 63 234 0.0 0.0 0.00 0.00 0.00 34 1017.1
20260503222504 63 234 0.0 1.0 0.00 0.00 0.00 34 1017.1
20260503222004 63 234 0.0 3.0 0.00 0.00 0.00 33 1017.1
20260503221503 64 157 0.0 2.0 0.00 0.00 0.00 32 1017.2
20260503220504 64 157 0.0 1.0 0.00 0.00 0.00 32 1017.4
20260503220004 64 157 0.0 1.0 0.00 0.00 0.00 36 1017.5
20260503215504 64 129 0.0 3.0 0.00 0.00 0.00 33 1017.5
20260503215004 64 199 0.0 1.0 0.00 0.00 0.00 32 1017.5
20260503214505 64 199 0.0 1.0 0.00 0.00 0.00 34 1017.6
20260503213504 64 313 0.0 2.0 0.00 0.00 0.00 31 1017.7
20260503213004 64 313 0.0 2.0 0.00 0.00 0.00 34 1017.7
20260503212504 64 162 0.0 3.0 0.00 0.00 0.00 34 1017.7
20260503212004 64 283 0.0 0.0 0.00 0.00 0.00 32 1017.8
20260503211503 65 283 0.0 0.0 0.00 0.00 0.00 36 1017.9
20260503211003 65 279 0.0 0.0 0.00 0.00 0.00 32 1017.9
20260503210503 64 279 0.0 2.0 0.00 0.00 0.00 31 1018.0
20260503205004 64 176 2.0 3.0 0.00 0.00 0.00 30 1018.0
20260503204004 64 267 0.0 3.0 0.00 0.00 0.00 31 1018.1
20260503203503 63 265 1.0 3.0 0.00 0.00 0.00 30 1018.2
20260503203003 63 211 1.0 6.0 0.00 0.00 0.00 28 1018.4
20260503202503 64 232 1.0 2.0 0.00 0.00 0.00 32 1018.4
20260503202004 64 234 1.0 3.0 0.00 0.00 0.00 33 1018.4
20260503201504 64 214 1.0 3.0 0.00 0.00 0.00 31 1018.5
20260503201004 64 181 1.0 7.0 0.00 0.00 0.00 31 1018.6
20260503200504 64 113 0.0 1.0 0.00 0.00 0.00 32 1018.6
20260503200003 64 112 2.0 3.0 0.00 0.00 0.00 30 1018.7
20260503195503 64 220 0.0 2.0 0.00 0.00 0.00 33 1018.8
20260503195003 63 147 2.0 7.0 0.00 0.00 0.00 31 1018.9
20260503194504 63 339 1.0 6.0 0.00 0.00 0.00 32 1018.9
20260503194004 63 332 1.0 3.0 0.00 0.00 0.00 31 1019.0
20260503193504 64 327 0.0 1.0 0.00 0.00 0.00 33 1019.1
20260503193004 64 355 0.0 1.0 0.00 0.00 0.00 31 1019.2
20260503192504 63 265 1.0 3.0 0.00 0.00 0.00 34 1019.1
20260503192004 63 272 1.0 3.0 0.00 0.00 0.00 30 1019.3
20260503191004 63 290 1.0 3.0 0.00 0.00 0.00 33 1019.5
20260503190503 63 272 1.0 3.0 0.00 0.00 0.00 34 1019.5
20260503190005 62 153 1.0 3.0 0.00 0.00 0.00 32 1019.7
20260503185503 63 289 1.0 2.0 0.00 0.00 0.00 33 1019.7
20260503185004 63 288 1.0 3.0 0.00 0.00 0.00 32 1019.8
20260503184504 63 311 1.0 3.0 0.00 0.00 0.00 32 1019.8
20260503184004 64 57 2.0 3.0 0.00 0.00 0.00 34 1019.8
20260503183504 63 188 1.0 3.0 0.00 0.00 0.00 30 1019.9
20260503183004 62 291 0.0 1.0 0.00 0.00 0.00 32 1020.0
20260503182505 62 291 1.0 3.0 0.00 0.00 0.00 30 1020.0
20260503182005 63 304 1.0 3.0 0.00 0.00 0.00 31 1020.2
20260503181504 64 15 1.0 3.0 0.00 0.00 0.00 31 1020.3
20260503181003 63 136 1.0 2.0 0.00 0.00 0.00 33 1020.3
20260503180503 63 157 0.0 3.0 0.00 0.00 0.00 35 1020.4
20260503180004 62 239 1.0 3.0 0.00 0.00 0.00 33 1020.5
20260503175504 62 236 1.0 3.0 0.00 0.00 0.00 35 1020.5
20260503175004 62 269 1.0 3.0 0.00 0.00 0.00 33 1020.6
20260503174504 62 63 2.0 7.0 0.00 0.00 0.00 35 1020.5
20260503174005 61 214 0.0 3.0 0.00 0.00 0.00 35 1020.6
20260503173503 61 24 0.0 2.0 0.00 0.00 0.00 33 1020.7
20260503172504 61 146 1.0 2.0 0.00 0.00 0.00 35 1020.7
20260503172005 61 202 0.0 0.0 0.00 0.00 0.00 34 1020.7
20260503171503 61 161 0.0 0.0 0.00 0.00 0.00 35 1020.7
20260503171004 61 159 0.0 2.0 0.00 0.00 0.00 36 1020.9
20260503170503 62 123 1.0 3.0 0.00 0.00 0.00 33 1020.9
20260503151004 56 269 1.0 3.0 0.00 0.00 0.00 44 1022.3